TimeEDT,TemperatureF,Dew PointF,Humidity,Sea Level PressureIn,VisibilityMPH,Wind Direction,Wind SpeedMPH,Gust SpeedMPH,PrecipitationIn,Events,Conditions,WindDirDegrees,DateUTC
12:15 AM,69.3,64.4,84,30.12,10.0,North,4.6,-,N/A,,Mostly Cloudy,350,2013-08-23 04:15:00
12:35 AM,68.4,64.2,87,30.12,7.0,North,3.5,-,N/A,,Scattered Clouds,360,2013-08-23 04:35:00
12:55 AM,67.8,63.9,87,30.12,5.0,Calm,Calm,-,N/A,,Scattered Clouds,0,2013-08-23 04:55:00
1:15 AM,66.9,63.1,88,30.12,4.0,Calm,Calm,-,N/A,,Clear,0,2013-08-23 05:15:00
1:35 AM,65.7,62.2,89,30.12,3.0,Calm,Calm,-,N/A,,Clear,0,2013-08-23 05:35:00
1:55 AM,64.2,61.0,89,30.12,2.0,Calm,Calm,-,N/A,,Clear,0,2013-08-23 05:55:00
2:15 AM,64.8,61.5,89,30.11,2.5,Calm,Calm,-,N/A,,Clear,0,2013-08-23 06:15:00
2:35 AM,63.5,60.1,89,30.11,2.0,Calm,Calm,-,N/A,,Clear,0,2013-08-23 06:35:00
2:55 AM,63.0,59.9,90,30.10,0.2,Calm,Calm,-,N/A,Fog,Fog,0,2013-08-23 06:55:00
3:15 AM,62.8,59.5,89,30.10,0.2,Calm,Calm,-,N/A,Fog,Fog,0,2013-08-23 07:15:00
3:35 AM,63.5,60.3,89,30.10,1.5,Calm,Calm,-,N/A,,Scattered Clouds,0,2013-08-23 07:35:00
3:55 AM,61.9,58.8,90,30.10,1.5,Calm,Calm,-,N/A,,Mist,0,2013-08-23 07:55:00
4:15 AM,60.8,57.7,90,30.10,0.2,Calm,Calm,-,N/A,Fog,Fog,0,2013-08-23 08:15:00
4:35 AM,60.8,58.1,91,30.10,1.8,Calm,Calm,-,N/A,,Mist,0,2013-08-23 08:35:00
4:55 AM,60.6,57.7,90,30.10,1.5,North,3.5,-,N/A,,Mist,360,2013-08-23 08:55:00
5:15 AM,61.3,58.5,90,30.10,2.0,Calm,Calm,-,N/A,,Clear,0,2013-08-23 09:15:00
5:35 AM,60.8,57.9,90,30.10,1.5,Calm,Calm,-,N/A,,Mist,0,2013-08-23 09:35:00
5:55 AM,62.4,59.5,90,30.11,2.5,Calm,Calm,-,N/A,,Clear,0,2013-08-23 09:55:00
6:15 AM,63.3,60.4,90,30.10,2.5,Calm,Calm,-,N/A,,Clear,0,2013-08-23 10:15:00
6:35 AM,63.5,60.8,91,30.11,2.5,Calm,Calm,-,N/A,,Clear,0,2013-08-23 10:35:00
6:55 AM,63.1,60.3,90,30.11,2.5,Calm,Calm,-,N/A,,Clear,0,2013-08-23 10:55:00
7:15 AM,63.9,61.0,90,30.12,1.8,Calm,Calm,-,N/A,,Mist,0,2013-08-23 11:15:00
7:35 AM,64.0,61.2,90,30.13,1.5,Calm,Calm,-,N/A,,Mist,0,2013-08-23 11:35:00
7:55 AM,63.9,61.0,90,30.13,1.8,Calm,Calm,-,N/A,,Mist,0,2013-08-23 11:55:00
8:15 AM,64.8,61.9,90,30.14,1.8,Calm,Calm,-,N/A,,Scattered Clouds,0,2013-08-23 12:15:00
8:35 AM,64.9,62.1,90,30.14,1.8,Calm,Calm,-,N/A,,Scattered Clouds,0,2013-08-23 12:35:00
8:55 AM,66.2,63.0,89,30.14,2.0,Calm,Calm,-,N/A,,Clear,0,2013-08-23 12:55:00
9:15 AM,67.5,64.4,90,30.14,4.0,Calm,Calm,-,N/A,,Scattered Clouds,0,2013-08-23 13:15:00
9:35 AM,68.9,65.3,88,30.14,7.0,Calm,Calm,-,N/A,,Scattered Clouds,0,2013-08-23 13:35:00
9:55 AM,70.0,64.9,84,30.14,7.0,North,4.6,-,N/A,,Scattered Clouds,10,2013-08-23 13:55:00
10:15 AM,69.3,64.0,83,30.14,4.0,NE,5.8,-,N/A,,Haze,50,2013-08-23 14:15:00
10:35 AM,69.8,64.4,83,30.15,5.0,NE,5.8,-,N/A,,Haze,50,2013-08-23 14:35:00
10:55 AM,68.7,63.5,83,30.16,4.0,NE,4.6,-,N/A,,Haze,40,2013-08-23 14:55:00
11:15 AM,68.9,63.7,83,30.16,4.0,NE,5.8,-,N/A,,Haze,50,2013-08-23 15:15:00
11:35 AM,70.2,64.6,82,30.16,5.0,NE,5.8,-,N/A,,Haze,40,2013-08-23 15:35:00
11:55 AM,71.1,64.6,80,30.16,7.0,NE,5.8,-,N/A,,Overcast,50,2013-08-23 15:55:00
12:15 PM,71.6,64.4,78,30.16,10.0,ENE,5.8,-,N/A,,Overcast,60,2013-08-23 16:15:00
12:35 PM,71.4,64.4,78,30.17,7.0,NNE,8.1,-,N/A,,Overcast,20,2013-08-23 16:35:00
12:55 PM,72.0,64.6,77,30.17,10.0,NNE,6.9,-,N/A,,Overcast,20,2013-08-23 16:55:00
1:15 PM,72.9,64.6,75,30.17,10.0,NE,8.1,-,N/A,,Overcast,40,2013-08-23 17:15:00
1:35 PM,72.9,64.8,76,30.16,10.0,ENE,6.9,-,N/A,,Overcast,70,2013-08-23 17:35:00
1:55 PM,72.5,64.6,76,30.16,7.0,NNE,5.8,-,N/A,,Overcast,30,2013-08-23 17:55:00
2:15 PM,74.8,64.4,70,30.16,10.0,NE,4.6,-,N/A,,Overcast,40,2013-08-23 18:15:00
2:35 PM,76.1,64.2,67,30.16,10.0,East,4.6,-,N/A,,Scattered Clouds,100,2013-08-23 18:35:00
2:55 PM,77.7,64.0,63,30.15,10.0,NE,5.8,-,N/A,,Scattered Clouds,40,2013-08-23 18:55:00
3:15 PM,78.6,64.4,62,30.15,10.0,NE,4.6,-,N/A,,Clear,40,2013-08-23 19:15:00
3:35 PM,79.7,64.0,59,30.14,10.0,ENE,4.6,-,N/A,,Clear,60,2013-08-23 19:35:00
3:55 PM,80.4,63.5,56,30.14,10.0,North,3.5,-,N/A,,Scattered Clouds,10,2013-08-23 19:55:00
4:15 PM,80.6,62.8,54,30.13,10.0,North,5.8,-,N/A,,Scattered Clouds,10,2013-08-23 20:15:00
4:35 PM,81.1,61.5,51,30.12,10.0,ENE,4.6,-,N/A,,Clear,60,2013-08-23 20:35:00
4:55 PM,82.0,62.2,51,30.12,10.0,East,5.8,-,N/A,,Clear,80,2013-08-23 20:55:00
5:15 PM,81.5,61.5,51,30.11,10.0,NE,5.8,-,N/A,,Clear,50,2013-08-23 21:15:00
5:35 PM,81.1,60.6,50,30.12,10.0,NE,5.8,-,N/A,,Clear,50,2013-08-23 21:35:00
5:55 PM,81.1,60.1,49,30.12,10.0,NE,5.8,-,N/A,,Clear,40,2013-08-23 21:55:00
6:15 PM,81.0,60.1,49,30.12,10.0,NNE,5.8,-,N/A,,Clear,20,2013-08-23 22:15:00
6:35 PM,80.8,60.3,49,30.12,10.0,NNE,5.8,-,N/A,,Clear,30,2013-08-23 22:35:00
6:55 PM,80.2,60.3,50,30.12,10.0,NE,4.6,-,N/A,,Clear,40,2013-08-23 22:55:00
7:15 PM,79.2,61.2,54,30.12,10.0,NNE,3.5,-,N/A,,Clear,20,2013-08-23 23:15:00
7:35 PM,78.3,62.1,57,30.12,10.0,North,3.5,-,N/A,,Clear,10,2013-08-23 23:35:00
7:55 PM,76.8,63.5,63,30.13,10.0,Calm,Calm,-,N/A,,Clear,0,2013-08-23 23:55:00
8:15 PM,73.8,64.6,73,30.14,10.0,Calm,Calm,-,N/A,,Clear,0,2013-08-24 00:15:00
8:35 PM,70.7,64.2,80,30.14,10.0,Calm,Calm,-,N/A,,Clear,0,2013-08-24 00:35:00
8:55 PM,68.7,63.5,83,30.14,7.0,Calm,Calm,-,N/A,,Clear,0,2013-08-24 00:55:00
9:15 PM,67.3,62.6,85,30.15,7.0,Calm,Calm,-,N/A,,Clear,0,2013-08-24 01:15:00
9:35 PM,66.4,61.9,85,30.16,7.0,NNE,3.5,-,N/A,,Clear,20,2013-08-24 01:35:00
9:55 PM,66.2,61.5,85,30.16,7.0,Calm,Calm,-,N/A,,Clear,0,2013-08-24 01:55:00
10:15 PM,64.9,60.6,86,30.17,7.0,NNE,3.5,-,N/A,,Clear,30,2013-08-24 02:15:00
10:35 PM,65.1,61.0,86,30.17,7.0,NE,3.5,-,N/A,,Clear,50,2013-08-24 02:35:00
10:55 PM,64.9,59.7,83,30.17,7.0,Calm,Calm,-,N/A,,Clear,0,2013-08-24 02:55:00
11:15 PM,62.6,58.5,86,30.17,7.0,Calm,Calm,-,N/A,,Clear,0,2013-08-24 03:15:00
11:35 PM,61.7,57.6,86,30.17,7.0,Calm,Calm,-,N/A,,Clear,0,2013-08-24 03:35:00
11:55 PM,61.0,57.2,87,30.18,7.0,Calm,Calm,-,N/A,,Clear,0,2013-08-24 03:55:00